| time (UTC) | temp F | wind direction | speed MPH | gust MPH | rain 1hr in | rain 24hr in | rain mn in | humidity % | barometer mb |
| 20260904200032 | 60 | 45 | 3.0 | 6.0 | 0.00 | 2.61 | 0.02 | 76 | 1016.4 |
| 20260904193034 | 57 | 35 | 1.0 | 4.0 | 0.00 | 2.61 | 0.02 | 81 | 1016.6 |
| 20260904191536 | 56 | 341 | 1.0 | 4.0 | 0.00 | 2.61 | 0.02 | 82 | 1016.6 |
| 20260904190035 | 56 | 339 | 1.0 | 5.0 | 0.00 | 2.61 | 0.02 | 82 | 1016.6 |
| 20260904184610 | 57 | 1 | 1.0 | 4.0 | 0.00 | 2.61 | 0.02 | 82 | 1016.7 |
| 20260904183036 | 55 | 54 | 0.0 | 3.0 | 0.00 | 2.61 | 0.02 | 83 | 1016.6 |
| 20260904181533 | 55 | 338 | 1.0 | 4.0 | 0.00 | 2.62 | 0.02 | 83 | 1016.5 |
| 20260904180107 | 57 | 356 | 1.0 | 5.0 | 0.00 | 2.62 | 0.02 | 82 | 1016.5 |
| 20260904174535 | 55 | 81 | 1.0 | 4.0 | 0.00 | 2.62 | 0.02 | 89 | 1016.5 |
| 20260904173106 | 52 | 76 | 0.0 | 3.0 | 0.00 | 2.62 | 0.02 | 91 | 1016.4 |
| 20260904170036 | 53 | 56 | 2.0 | 4.0 | 0.00 | 2.62 | 0.02 | 92 | 1016.3 |
| 20260904164535 | 54 | 49 | 2.0 | 4.0 | 0.00 | 2.62 | 0.02 | 93 | 1016.2 |
| 20260904163034 | 53 | 11 | 0.0 | 4.0 | 0.00 | 2.62 | 0.02 | 97 | 1016.3 |
| 20260904161532 | 51 | 346 | 0.0 | 5.0 | 0.00 | 2.62 | 0.02 | 98 | 1016.2 |
| 20260904160033 | 50 | 24 | 0.0 | 3.0 | 0.00 | 2.62 | 0.02 | 98 | 1016.0 |
| 20260904154530 | 49 | 17 | 0.0 | 3.0 | 0.00 | 2.62 | 0.02 | 98 | 1015.8 |
| 20260904153035 | 49 | 360 | 1.0 | 3.0 | 0.00 | 2.62 | 0.02 | 98 | 1015.7 |
| 20260904151535 | 49 | 61 | 0.0 | 0.0 | 0.00 | 2.62 | 0.02 | 98 | 1015.5 |
| 20260904150035 | 48 | 90 | 0.0 | 0.0 | 0.00 | 2.62 | 0.02 | 98 | 1015.4 |
| 20260904144535 | 48 | 90 | 0.0 | 0.0 | 0.00 | 2.62 | 0.02 | 98 | 1015.4 |
| 20260904143039 | 48 | 114 | 0.0 | 3.0 | 0.00 | 2.62 | 0.02 | 98 | 1015.1 |
| 20260904141536 | 47 | 180 | 0.0 | 0.0 | 0.00 | 2.62 | 0.02 | 98 | 1015.0 |
| 20260904140037 | 47 | 180 | 0.0 | 0.0 | 0.00 | 2.62 | 0.02 | 98 | 1014.9 |
| 20260904134608 | 47 | 180 | 0.0 | 0.0 | 0.00 | 2.62 | 0.02 | 98 | 1014.7 |
| 20260904133036 | 47 | 180 | 0.0 | 0.0 | 0.00 | 2.62 | 0.02 | 98 | 1014.6 |
| 20260904131534 | 47 | 180 | 0.0 | 0.0 | 0.00 | 2.62 | 0.02 | 98 | 1014.5 |
| 20260904130035 | 47 | 180 | 0.0 | 2.0 | 0.01 | 2.62 | 0.02 | 98 | 1014.3 |
| 20260904124535 | 47 | 180 | 0.0 | 0.0 | 0.01 | 2.62 | 0.02 | 98 | 1014.4 |
| 20260904123034 | 47 | 180 | 0.0 | 0.0 | 0.01 | 2.62 | 0.02 | 98 | 1014.4 |
| 20260904121606 | 47 | 180 | 0.0 | 0.0 | 0.01 | 2.62 | 0.01 | 98 | 1014.3 |
| 20260904120035 | 47 | 180 | 0.0 | 1.0 | 0.01 | 2.61 | 0.01 | 98 | 1014.2 |
| 20260904114536 | 48 | 180 | 0.0 | 2.0 | 0.01 | 2.61 | 0.01 | 98 | 1014.1 |
| 20260904111535 | 48 | 170 | 0.0 | 1.0 | 0.01 | 2.61 | 0.00 | 97 | 1013.9 |
| 20260904110109 | 48 | 135 | 0.0 | 0.0 | 0.00 | 2.60 | 0.00 | 97 | 1013.7 |
| 20260904104536 | 47 | 135 | 0.0 | 0.0 | 0.00 | 2.60 | 0.00 | 97 | 1013.6 |
| 20260904103105 | 47 | 135 | 0.0 | 0.0 | 0.00 | 2.60 | 0.00 | 97 | 1013.5 |
| 20260904101536 | 48 | 135 | 0.0 | 1.0 | 0.00 | 2.60 | 0.00 | 97 | 1013.4 |
| 20260904094536 | 47 | 247 | 0.0 | 1.0 | 0.00 | 2.60 | 0.00 | 97 | 1013.2 |
| 20260904093034 | 47 | 271 | 1.0 | 4.0 | 0.00 | 2.60 | 0.00 | 97 | 1013.2 |
| 20260904091531 | 47 | 343 | 0.0 | 3.0 | 0.00 | 2.60 | 0.00 | 97 | 1013.2 |
| 20260904090035 | 47 | 139 | 1.0 | 4.0 | 0.00 | 2.60 | 0.00 | 97 | 1013.1 |
| 20260904084536 | 47 | 168 | 2.0 | 3.0 | 0.00 | 2.60 | 0.00 | 97 | 1013.0 |
| 20260904083035 | 47 | 202 | 0.0 | 0.0 | 0.00 | 2.60 | 0.00 | 97 | 1013.0 |
| 20260904081531 | 47 | 202 | 0.0 | 1.0 | 0.00 | 2.60 | 0.00 | 97 | 1013.1 |
| 20260904080038 | 48 | 174 | 2.0 | 4.0 | 0.00 | 2.60 | 0.00 | 97 | 1013.1 |
| 20260904074531 | 47 | 162 | 0.0 | 3.0 | 0.00 | 2.60 | 0.00 | 97 | 1013.1 |
| 20260904073036 | 47 | 135 | 0.0 | 2.0 | 0.00 | 2.60 | 0.00 | 96 | 1013.1 |
| 20260904071530 | 47 | 135 | 0.0 | 0.0 | 0.00 | 2.60 | 0.00 | 96 | 1013.1 |
| 20260904070041 | 47 | 149 | 0.0 | 3.0 | 0.00 | 2.60 | 0.00 | 96 | 1013.0 |
| 20260904064529 | 47 | 151 | 0.0 | 2.0 | 0.00 | 2.60 | 2.60 | 96 | 1013.0 |
| 20260904061535 | 47 | 135 | 0.0 | 0.0 | 0.00 | 2.60 | 2.60 | 95 | 1013.0 |
| 20260904060036 | 48 | 128 | 0.0 | 3.0 | 0.00 | 2.60 | 2.60 | 95 | 1012.9 |
| 20260904054537 | 48 | 137 | 0.0 | 3.0 | 0.00 | 2.60 | 2.60 | 95 | 1012.9 |
| 20260904053036 | 48 | 179 | 0.0 | 3.0 | 0.00 | 2.60 | 2.60 | 95 | 1013.0 |
| 20260904044528 | 50 | 208 | 1.0 | 3.0 | 0.00 | 2.60 | 2.60 | 95 | 1013.1 |
| 20260904043035 | 50 | 286 | 0.0 | 3.0 | 0.00 | 2.60 | 2.60 | 94 | 1013.2 |
| 20260904041533 | 50 | 203 | 0.0 | 2.0 | 0.00 | 2.60 | 2.60 | 94 | 1013.3 |
| 20260904040034 | 50 | 247 | 0.0 | 2.0 | 0.00 | 2.60 | 2.60 | 94 | 1013.2 |
| 20260904034534 | 50 | 273 | 1.0 | 5.0 | 0.00 | 2.60 | 2.60 | 93 | 1013.0 |
| 20260904033033 | 50 | 167 | 0.0 | 3.0 | 0.00 | 2.60 | 2.60 | 92 | 1012.9 |
| 20260904031535 | 50 | 279 | 0.0 | 2.0 | 0.00 | 2.60 | 2.60 | 92 | 1012.8 |
| 20260904030035 | 50 | 292 | 0.0 | 2.0 | 0.00 | 2.60 | 2.60 | 91 | 1012.7 |
| 20260904024530 | 51 | 263 | 0.0 | 3.0 | 0.00 | 2.60 | 2.60 | 90 | 1012.6 |
| 20260904023030 | 52 | 279 | 1.0 | 4.0 | 0.00 | 2.61 | 2.60 | 89 | 1012.5 |
| 20260904021534 | 53 | 329 | 1.0 | 5.0 | 0.00 | 2.67 | 2.60 | 89 | 1012.6 |
| 20260904020031 | 53 | 15 | 2.0 | 6.0 | 0.00 | 2.72 | 2.60 | 89 | 1012.5 |
| 20260904013037 | 54 | 7 | 2.0 | 6.0 | 0.00 | 2.80 | 2.60 | 88 | 1012.5 |
| 20260904011536 | 54 | 1 | 2.0 | 6.0 | 0.00 | 2.80 | 2.60 | 88 | 1012.5 |
| 20260904010106 | 54 | 354 | 1.0 | 5.0 | 0.00 | 2.82 | 2.60 | 88 | 1012.4 |
| 20260904004536 | 54 | 341 | 1.0 | 4.0 | 0.00 | 2.83 | 2.60 | 88 | 1012.3 |
| 20260904003105 | 54 | 316 | 2.0 | 5.0 | 0.00 | 2.85 | 2.60 | 87 | 1012.2 |
| 20260904001533 | 55 | 340 | 1.0 | 4.0 | 0.00 | 2.85 | 2.60 | 86 | 1012.2 |
| 20260904000038 | 55 | 67 | 2.0 | 7.0 | 2.59 | 2.89 | 2.60 | 85 | 1012.1 |
| 20260903234536 | 55 | 64 | 4.0 | 9.0 | 2.59 | 2.90 | 2.60 | 85 | 1012.2 |
| 20260903231537 | 56 | 52 | 1.0 | 6.0 | 2.59 | 2.92 | 0.01 | 75 | 1012.4 |
| 20260903230037 | 58 | 303 | 3.0 | 9.0 | 0.00 | 0.34 | 0.01 | 70 | 1012.4 |
| 20260903224607 | 59 | 309 | 3.0 | 7.0 | 0.00 | 0.35 | 0.01 | 68 | 1012.4 |
| 20260903223109 | 61 | 323 | 3.0 | 7.0 | 0.00 | 0.36 | 0.01 | 66 | 1012.4 |
| 20260903221535 | 61 | 320 | 3.0 | 7.0 | 0.00 | 0.36 | 0.01 | 66 | 1012.4 |
| 20260903213037 | 60 | 324 | 1.0 | 4.0 | 0.00 | 0.39 | 0.01 | 71 | 1012.5 |
| 20260903211533 | 59 | 311 | 2.0 | 7.0 | 0.00 | 0.41 | 0.01 | 72 | 1012.5 |
| 20260903210036 | 59 | 326 | 4.0 | 7.0 | 0.00 | 0.41 | 0.01 | 73 | 1012.7 |
| 20260903204535 | 59 | 321 | 4.0 | 7.0 | 0.00 | 0.41 | 0.01 | 73 | 1012.7 |
| 20260903203032 | 59 | 312 | 5.0 | 8.0 | 0.00 | 0.43 | 0.01 | 74 | 1012.8 |
| 20260903201644 | 59 | 318 | 5.0 | 11.0 | 0.00 | 0.44 | 0.01 | 76 | 1012.9 |